Wind_Speed
67 64 62 61 62 62 61 59 55 65 66 59 55 55 62 70 78 83 82 81 86 93 94 97 97 89 97 102 99 99 98 90 86 86 84 80 78 76 72 61 54 47 43 42
61 59 56 55 55 56 55 53 52 59 58 50 51 58 62 68 71 72 71 77 81 81 84 82 79 90 96 95 97 97 98 95 88 86 87 82 82 70 69 64 52 43 43 47
56 54 51 49 50 50 48 47 47 52 49 50 53 58 61 62 68 68 63 65 72 73 79 81 78 77 84 87 89 90 96 91 83 86 89 87 80 76 74 72 59 50 41 54
51 49 47 46 44 42 42 42 46 48 47 52 53 52 56 58 59 61 60 63 66 65 68 70 71 74 74 73 70 72 78 69 73 72 77 80 81 77 75 70 61 54 47 57
47 45 45 43 38 35 38 42 44 47 49 46 44 44 50 53 54 55 53 59 61 60 63 68 65 60 59 60 62 65 67 61 66 65 66 67 71 68 65 63 57 52 51 56
45 43 42 39 33 33 35 38 40 43 42 40 39 46 48 50 49 51 52 56 54 57 59 61 55 53 55 55 59 64 58 59 60 60 66 67 66 48 55 58 56 51 55 59
42 42 42 39 32 33 32 36 38 37 40 39 45 47 48 49 49 48 48 50 53 54 53 54 51 49 51 53 59 61 62 62 58 60 69 69 45 53 53 55 55 53 60 64
41 40 40 38 36 33 35 37 33 36 37 39 40 40 44 45 45 46 47 52 55 49 49 48 47 47 45 52 56 63 65 63 52 60 65 57 53 50 53 54 51 56 62 63
39 39 40 39 37 34 37 36 34 34 36 31 38 38 40 41 42 43 47 50 44 43 42 42 43 45 48 53 59 65 64 67 58 61 63 59 58 57 64 60 56 57 64 67
40 40 40 39 38 35 35 35 37 36 33 36 36 36 38 41 40 41 42 42 41 39 37 39 43 47 49 52 58 61 68 64 61 63 63 57 64 65 63 58 56 60 67 68
38 39 40 40 40 39 36 36 34 37 42 46 42 40 40 40 40 40 45 40 35 32 32 37 41 45 46 51 57 62 63 66 66 63 60 57 66 68 65 58 65 63 66 68
41 42 43 44 45 46 44 41 39 40 42 44 45 46 45 45 48 46 40 38 33 31 32 34 40 46 48 54 56 63 63 67 71 64 61 59 64 66 66 60 62 66 70 69
46 47 48 49 50 50 46 45 46 43 41 47 44 44 51 53 52 50 46 42 40 34 35 37 38 45 51 55 58 64 66 70 68 55 59 59 64 68 67 64 64 70 72 72
46 48 50 50 50 51 50 47 47 42 38 38 50 57 54 59 58 52 48 46 41 37 39 37 39 45 50 54 60 66 67 67 60 57 53 64 65 68 67 65 67 71 69 69
40 42 43 45 45 46 46 46 47 43 40 46 54 56 59 59 56 51 49 47 42 37 36 36 38 45 50 53 59 60 64 63 41 50 58 63 66 70 68 65 69 71 71 73
34 37 39 40 41 41 38 33 37 40 44 45 41 45 55 56 52 49 51 50 46 39 36 38 40 47 46 49 54 58 56 48 38 52 60 62 67 71 68 67 68 70 71 72
28 30 32 35 36 34 36 43 48 45 43 37 38 45 49 55 55 52 52 50 43 36 37 38 41 45 44 45 47 56 49 40 46 62 68 68 70 70 69 70 70 66 66 68
23 25 29 31 32 34 36 39 40 38 40 39 42 45 48 48 44 44 46 43 31 29 36 39 41 44 43 45 51 50 44 46 55 56 62 69 72 72 69 73 72 69 66 67
19 21 23 27 30 31 32 31 34 34 33 33 32 34 37 37 38 41 35 29 30 39 41 38 41 42 41 45 47 48 47 54 61 66 64 69 73 74 76 77 76 73 66 61
21 21 21 21 23 24 27 26 25 26 26 28 31 32 33 37 37 30 30 36 42 44 41 39 37 36 38 41 49 49 55 62 64 64 67 69 73 77 76 78 77 74 69 64
25 26 26 26 27 28 26 26 26 26 26 27 29 32 31 31 31 37 40 40 38 38 39 33 29 35 38 43 49 52 55 66 67 68 70 72 74 78 78 77 76 76 73 70
24 27 28 29 29 30 32 33 32 33 34 33 30 33 37 39 36 35 33 33 37 39 37 28 27 40 40 46 53 58 61 66 66 67 70 71 73 75 78 79 77 78 77 73
28 29 27 28 29 30 31 32 32 30 31 32 34 35 34 35 35 35 35 36 38 37 28 26 35 42 42 50 54 57 61 63 64 65 68 69 70 72 75 79 76 74 72 73
28 30 30 27 26 27 29 32 33 33 33 33 33 33 33 30 30 28 27 25 25 23 25 32 39 40 44 51 52 53 53 52 54 60 66 70 70 69 71 75 78 76 74 73
27 29 29 29 28 28 28 29 29 28 28 27 25 24 23 23 23 24 26 26 26 27 29 32 37 39 43 46 47 48 48 51 54 60 67 68 67 70 68 69 70 72 73 73
25 25 26 26 27 27 27 27 26 24 22 20 19 18 18 18 18 19 19 18 19 25 29 33 36 38 41 44 46 48 50 52 52 62 69 65 60 62 63 64 66 67 67 67
23 25 24 25 26 26 26 25 25 24 24 23 21 19 16 13 12 13 16 19 21 23 26 31 37 41 43 44 46 45 47 50 53 55 57 58 56 56 60 65 67 67 69 69
Wind_Direction
274 272 269 266 264 263 262 259 257 253 255 253 252 247 243 242 242 243 243 245 246 247 250 247 244 245 244 246 248 250 251 253 250 255 254 256 261 267 269 269 269 256 239 236
272 270 267 264 261 259 258 255 251 252 254 253 248 243 240 239 242 243 242 242 244 244 247 249 247 246 245 245 247 248 249 250 251 248 252 257 262 265 264 265 261 252 244 233
272 271 268 265 262 258 254 251 250 250 250 245 241 240 238 238 239 241 240 241 243 244 245 244 247 243 245 246 246 247 249 249 250 247 251 250 249 251 253 255 253 244 239 228
271 269 266 263 259 255 252 248 244 244 241 240 238 239 239 239 241 241 241 241 241 241 243 244 242 244 243 245 244 244 245 242 245 243 243 244 243 243 247 249 248 237 229 222
268 264 262 264 258 253 247 244 241 239 240 241 241 240 238 238 239 240 240 241 241 241 243 244 241 241 240 240 240 240 242 237 237 236 238 239 237 236 242 248 245 237 230 218
263 261 258 255 251 248 244 241 237 237 237 235 235 235 236 237 237 237 236 239 240 240 239 243 242 238 237 234 235 240 233 234 231 230 229 233 231 235 236 239 235 229 219 215
257 256 255 251 241 237 239 238 238 236 235 232 231 233 234 236 235 234 235 235 237 239 238 240 240 234 231 227 226 233 234 232 228 224 226 229 220 226 228 227 222 213 212 214
251 251 251 250 241 223 224 231 229 232 230 228 231 233 233 235 236 235 234 233 235 232 234 234 235 231 227 221 222 221 230 235 223 222 225 219 214 216 219 215 214 214 209 213
246 247 248 248 245 230 218 217 219 224 228 227 229 228 233 235 236 234 233 236 235 236 235 230 230 228 221 216 215 218 221 229 222 222 223 218 208 214 216 213 207 215 208 210
245 245 246 247 248 242 228 216 215 211 213 223 227 225 224 227 229 231 232 232 231 228 224 222 222 223 218 214 213 216 217 225 224 221 220 212 209 213 220 216 206 216 209 211
247 247 247 248 249 248 243 234 219 205 206 215 219 225 228 231 231 232 232 226 224 221 215 213 215 221 219 215 210 212 217 221 224 221 218 209 209 211 216 209 210 217 208 211
248 248 247 247 247 247 245 244 237 225 215 212 215 219 225 231 232 234 234 233 219 216 214 210 209 213 216 215 214 212 212 220 223 219 210 205 209 211 214 210 214 209 209 214
248 247 247 247 247 247 246 243 241 235 224 216 215 217 221 226 231 232 232 234 233 222 219 215 210 209 215 211 210 212 214 219 224 216 210 208 208 209 213 211 211 208 213 214
250 248 248 247 246 246 246 245 243 239 236 222 218 219 219 221 226 228 230 230 232 225 222 216 213 212 214 214 210 212 216 222 225 216 205 207 207 206 207 210 209 209 214 218
246 244 243 242 241 241 241 240 240 237 230 226 225 220 223 225 225 223 227 230 229 225 222 218 215 216 214 213 214 214 218 222 228 215 202 203 206 206 207 211 209 210 215 219
237 235 235 235 235 234 234 234 238 238 232 228 224 223 226 228 227 225 224 229 229 224 218 219 215 220 216 217 215 216 221 216 210 207 196 200 206 206 211 212 210 213 219 221
228 225 224 225 226 226 222 219 220 220 220 218 214 217 220 224 226 222 225 229 231 223 218 217 215 219 218 218 214 218 216 204 196 205 197 200 203 207 212 213 211 216 222 223
214 213 213 214 213 213 214 218 219 222 223 216 213 213 215 219 223 225 226 229 226 216 218 215 213 214 215 216 212 211 203 194 191 202 201 203 204 206 210 212 213 218 223 226
189 195 202 205 206 208 210 210 211 213 214 211 212 213 209 209 208 213 216 215 213 216 219 216 214 213 214 212 211 202 195 192 195 203 204 205 208 208 209 212 218 221 223 229
165 170 178 185 188 189 194 193 196 199 201 200 200 199 201 202 204 199 204 207 210 216 218 216 213 212 215 207 208 198 193 194 200 200 203 204 209 211 213 213 218 223 227 231
159 160 162 166 171 176 176 174 178 181 184 190 192 190 187 181 181 198 204 207 209 215 219 214 206 214 211 207 204 199 194 197 199 199 205 206 210 214 214 217 221 224 227 231
154 153 153 155 159 160 159 165 169 172 173 171 178 177 179 189 194 198 199 201 206 214 217 202 206 216 203 203 200 200 198 201 201 201 205 209 212 215 216 218 224 228 229 233
142 136 140 147 152 157 157 157 158 167 167 170 174 179 183 185 191 195 197 202 207 210 207 198 208 212 200 201 200 204 208 207 207 205 207 210 216 219 221 221 226 231 233 236
139 136 138 143 145 149 152 153 156 162 167 169 174 179 182 189 194 200 205 208 213 211 209 209 206 208 203 202 201 205 210 210 210 209 208 213 218 222 224 226 227 233 238 242
139 138 143 145 147 150 151 152 153 153 156 161 167 172 179 188 196 202 207 210 210 207 205 203 204 204 203 202 204 204 205 205 206 206 209 215 219 225 227 229 233 236 240 245
132 136 138 139 138 137 140 143 147 151 154 158 162 168 177 185 194 201 205 210 208 205 204 201 201 197 198 200 202 201 202 205 207 209 213 221 225 228 231 234 238 241 245 248
134 135 134 135 137 138 140 142 142 146 148 149 151 151 154 162 180 190 195 199 195 196 198 202 197 191 195 199 202 202 200 203 209 214 218 220 225 230 235 238 241 244 247 251
Height
10231 10233 10236 10237 10239 10240 10246 10253 10265 10257 10257 10276 10294 10309 10312 10314 10317 10328 10345 10353 10363 10371 10370 10390 10413 10433 10432 10439 10451 10451 10461 10481 10492 10495 10489 10502 10511 10521 10526 10533 10543 10550 10556 10564
10213 10214 10217 10220 10222 10225 10230 10239 10244 10241 10249 10269 10276 10278 10285 10291 10300 10309 10325 10335 10339 10348 10355 10368 10384 10400 10404 10413 10419 10429 10436 10454 10466 10473 10473 10494 10499 10505 10510 10518 10526 10540 10547 10554
10194 10196 10200 10202 10205 10210 10217 10223 10230 10230 10239 10246 10253 10256 10264 10274 10279 10291 10308 10316 10318 10331 10335 10345 10357 10373 10376 10386 10398 10407 10413 10431 10447 10461 10460 10466 10475 10484 10490 10499 10513 10524 10535 10539
10177 10179 10183 10187 10193 10199 10204 10208 10210 10215 10223 10225 10233 10244 10249 10259 10268 10277 10290 10297 10301 10309 10316 10325 10338 10344 10357 10368 10382 10385 10390 10414 10423 10431 10435 10442 10452 10463 10470 10484 10498 10506 10518 10524
10161 10165 10167 10173 10181 10187 10189 10192 10195 10200 10206 10216 10225 10233 10238 10245 10253 10261 10275 10278 10282 10297 10303 10305 10317 10332 10345 10355 10364 10369 10375 10396 10401 10413 10417 10424 10431 10446 10459 10473 10485 10498 10505 10516
10147 10150 10155 10162 10172 10174 10176 10179 10183 10188 10198 10208 10216 10216 10222 10229 10241 10249 10257 10259 10273 10277 10284 10291 10307 10321 10330 10342 10348 10349 10363 10374 10384 10397 10398 10402 10411 10446 10449 10457 10468 10482 10492 10501
10134 10137 10141 10150 10163 10162 10166 10167 10173 10181 10188 10197 10199 10203 10210 10217 10227 10237 10244 10250 10255 10263 10273 10282 10293 10305 10313 10323 10332 10338 10345 10356 10368 10378 10377 10385 10425 10420 10430 10440 10452 10464 10475 10483
10123 10126 10130 10136 10146 10157 10157 10156 10166 10170 10177 10183 10188 10197 10202 10208 10217 10225 10231 10233 10239 10257 10263 10272 10281 10289 10303 10309 10317 10325 10331 10339 10357 10364 10369 10391 10403 10410 10416 10427 10441 10450 10461 10475
10113 10116 10119 10123 10131 10143 10149 10153 10159 10163 10167 10176 10179 10188 10192 10198 10207 10214 10215 10220 10235 10246 10256 10263 10269 10277 10283 10293 10303 10309 10319 10326 10342 10352 10358 10378 10389 10393 10390 10409 10431 10439 10448 10457
10102 10106 10109 10113 10118 10126 10136 10146 10152 10159 10165 10166 10172 10180 10183 10187 10194 10201 10207 10215 10225 10235 10243 10250 10256 10261 10271 10282 10288 10299 10307 10316 10327 10340 10345 10365 10373 10377 10387 10407 10426 10423 10435 10447
10092 10096 10099 10103 10108 10114 10120 10129 10141 10153 10156 10158 10165 10170 10176 10181 10186 10192 10193 10206 10217 10226 10233 10238 10245 10252 10262 10269 10279 10287 10295 10304 10313 10324 10336 10352 10356 10365 10380 10397 10401 10409 10428 10436
10080 10083 10087 10091 10096 10101 10106 10116 10127 10136 10147 10157 10160 10164 10169 10173 10175 10181 10191 10198 10209 10217 10224 10230 10235 10242 10250 10258 10268 10273 10286 10294 10296 10306 10325 10338 10349 10359 10369 10384 10389 10401 10414 10423
10064 10068 10072 10077 10081 10087 10094 10101 10109 10119 10134 10144 10153 10161 10160 10162 10165 10172 10181 10191 10197 10209 10214 10219 10227 10232 10236 10246 10259 10266 10271 10276 10284 10301 10317 10330 10338 10346 10359 10372 10380 10391 10401 10410
10049 10053 10057 10062 10067 10073 10079 10090 10096 10104 10119 10133 10138 10136 10146 10145 10152 10164 10173 10180 10188 10197 10204 10212 10218 10223 10228 10236 10244 10254 10259 10268 10278 10295 10310 10322 10329 10339 10349 10358 10369 10381 10390 10399
10034 10039 10044 10049 10054 10061 10067 10075 10084 10092 10102 10109 10115 10123 10130 10135 10145 10157 10165 10171 10179 10188 10198 10206 10209 10213 10218 10226 10234 10248 10256 10265 10276 10291 10302 10312 10320 10332 10339 10348 10361 10371 10379 10384
10022 10026 10031 10037 10042 10048 10057 10069 10078 10081 10084 10094 10109 10117 10119 10129 10140 10151 10157 10163 10170 10180 10191 10197 10203 10204 10213 10221 10233 10239 10250 10259 10272 10283 10294 10303 10315 10325 10334 10341 10352 10360 10369 10381
10012 10017 10023 10028 10033 10041 10049 10052 10053 10060 10070 10085 10095 10102 10113 10122 10130 10139 10148 10156 10164 10175 10184 10189 10194 10199 10208 10218 10231 10232 10245 10258 10269 10278 10291 10298 10308 10319 10327 10336 10342 10350 10358 10367
10006 10010 10015 10020 10026 10033 10040 10044 10051 10060 10068 10077 10084 10092 10102 10112 10123 10134 10143 10149 10158 10169 10174 10180 10186 10192 10202 10208 10212 10225 10239 10253 10264 10277 10287 10292 10299 10308 10317 10325 10332 10340 10346 10351
10001 10006 10011 10017 10022 10029 10034 10042 10049 10056 10065 10074 10084 10092 10100 10109 10117 10126 10135 10145 10156 10160 10165 10172 10177 10184 10191 10199 10208 10219 10231 10243 10251 10266 10280 10287 10292 10299 10304 10313 10321 10328 10336 10343
10000 10006 10011 10017 10022 10028 10033 10041 10049 10057 10064 10073 10080 10087 10096 10105 10113 10123 10133 10140 10146 10150 10155 10162 10173 10182 10190 10197 10202 10211 10220 10234 10243 10256 10269 10277 10285 10293 10301 10306 10313 10321 10329 10335
10001 10005 10010 10015 10021 10026 10034 10041 10048 10055 10063 10071 10078 10085 10095 10104 10110 10116 10124 10133 10141 10145 10148 10160 10172 10175 10180 10187 10195 10204 10215 10223 10233 10246 10258 10268 10277 10286 10293 10300 10307 10313 10319 10325
10008 10010 10014 10019 10025 10030 10035 10040 10046 10054 10061 10068 10079 10086 10092 10099 10107 10113 10120 10128 10134 10139 10144 10157 10162 10161 10171 10178 10186 10196 10207 10218 10228 10238 10249 10260 10268 10276 10285 10293 10299 10305 10311 10315
10014 10017 10022 10026 10031 10035 10040 10046 10052 10059 10065 10071 10077 10085 10092 10099 10105 10110 10116 10122 10127 10132 10143 10151 10151 10153 10164 10170 10180 10191 10200 10212 10226 10236 10245 10253 10260 10267 10276 10283 10291 10295 10299 10303
10020 10023 10028 10035 10040 10044 10048 10051 10056 10062 10068 10074 10081 10087 10093 10099 10105 10111 10115 10120 10125 10131 10135 10137 10142 10150 10158 10166 10177 10187 10198 10210 10222 10230 10238 10245 10251 10258 10265 10271 10278 10283 10287 10289
10029 10033 10038 10042 10046 10051 10055 10060 10065 10070 10076 10081 10085 10090 10095 10100 10104 10108 10112 10115 10120 10125 10131 10135 10142 10149 10156 10165 10174 10182 10192 10202 10211 10220 10228 10233 10240 10243 10254 10262 10268 10272 10276 10278
10038 10041 10045 10049 10053 10058 10062 10066 10070 10074 10079 10084 10089 10093 10098 10101 10105 10108 10112 10117 10122 10126 10130 10134 10140 10146 10154 10161 10169 10176 10185 10194 10205 10208 10211 10222 10236 10242 10248 10253 10256 10259 10262 10264
10044 10048 10052 10056 10059 10062 10065 10069 10073 10078 10082 10086 10091 10096 10099 10103 10106 10110 10113 10116 10119 10123 10127 10133 10137 10143 10150 10157 10166 10174 10183 10191 10198 10205 10213 10223 10230 10235 10239 10241 10244 10246 10247 10248